Simultaneous Nadir Overpasses (SNOs) Predictions

Prediction of SNOs between LANDSAT-8 and METOP-A Satellite Orbit:

Table of predicted SNOs for the next 14.0 days since TLE Epoch: 1/19/2018
Index Date (LANDSAT-8) Time (LANDSAT-8) Lat,Lon (LANDSAT-8) SZA (LANDSAT-8 ) Date (METOP-A) Time (METOP-A) Lat,Lon (METOP-A) SZA (METOP-A ) Distance(km) Time Diff (sec)
1 01/20/2018 12:21:46 81.29, 37.00 103.24 01/20/2018 12:21:30 81.29, 36.90 103.22 1.66 16
2 01/20/2018 13:11:12 -81.31,-155.10 76.74 01/20/2018 13:12:09 -81.30,-155.06 76.71 0.70 57
3 01/23/2018 07:56:00 81.28, 103.27 102.56 01/23/2018 07:55:49 81.29, 103.21 102.56 1.22 11
4 01/23/2018 08:45:26 -81.30, -88.80 77.41 01/23/2018 08:46:28 -81.30, -88.76 77.38 0.82 62
5 01/26/2018 03:30:13 81.29, 169.89 101.89 01/26/2018 03:30:07 81.29, 169.88 101.88 0.17 6
6 01/26/2018 04:19:39 -81.31, -22.16 78.08 01/26/2018 04:20:46 -81.31, -22.08 78.05 1.30 67
7 01/28/2018 22:15:14 -80.94, 63.32 79.61 01/28/2018 22:14:00 -81.10, 62.87 79.54 19.14 74
8 01/28/2018 23:04:25 81.30,-123.54 101.16 01/28/2018 23:04:24 81.30,-123.47 101.17 1.18 1
9 01/28/2018 23:53:52 -81.30, 44.06 78.86 01/28/2018 23:55:04 -81.31, 44.18 78.81 2.21 72
10 01/31/2018 17:49:13 -81.28, 134.95 79.65 01/31/2018 17:48:04 -81.28, 134.81 79.70 2.49 69




NCC Satellite Simultaneous Nadir Overpasses (SNOs) Prediction Service
